Content
SEND FEEDBACK

Daily
Averages
Monthly
Summary
United States of America

SAULT STE. MARIE, MICHIGAN


Home > North America > United States > Michigan
Elevation: 699 feet     Latitude: 46 28N     Longitude: 084 22W

WEATHER
 
SELECT A DAY
Number of Records: 214,851;   Date Range: 1/1/95 - 7/20/14
 
SHARE

PRINT THIS DATA

[ ← Previous Day ]
WEATHER ALMANAC - JANUARY 3, 2013
[ Next Day → ]
[ °C ]   °F
Weather ElementAverageHighLow
Temperature19.7 °F27 °F (12:16 pm)14 °F (12:41 am)
Dewpoint14.1 °F21.9 °F (12:16 pm)9 °F (12:41 am)
Humidity79.3 %88 % (5:55 am)65 % (8:29 pm)
Barometer29.93 in30.06 in (12:55 am)29.81 in (11:55 pm)
Wind Speed7.7 mph17.3 mph (4:55 pm)
Wind Gust27.6 mph (12:38 pm)
Weather ElementAverage
Visibility4.8 mi
Wind DirectionSSE (161.5 °)

Weather ElementTotal
Precipitation0.24 in
Heating Degree Days44.5 (Base 65)
Averaged from 52 records on January 3, 2013
WEATHER CONDITIONS BREAKOUT
WIND DIRECTION BREAKOUT
WEATHER BY HOUR - JANUARY 3, 2013
[ °C ]   °F
Local TimeTemperatureDewpointHumidityBarometerVisibilityWind DirectionWind SpeedGust SpeedPrecipitationEventsConditions
12:41 AM14.0 °F9.0 °F80 %30.03 in5.0 miEast (90°)6.9 mph0.01 inSnowLight Snow
12:55 AM14.0 °F9.0 °F80 %30.06 in5.0 miEast (90°)8.1 mph0.01 inSnowLight Snow
1:36 AM14.0 °F10.0 °F84 %30.01 in4.0 miEast (80°)6.9 mph0.00 inSnowLight Snow
1:55 AM14.0 °F10.0 °F84 %30.04 in5.0 miEast (90°)6.9 mph0.01 inSnowLight Snow
2:55 AM15.1 °F10.0 °F80 %30.02 in4.0 miEast (80°)6.9 mph0.00 inSnowLight Snow
3:46 AM15.1 °F10.9 °F84 %29.97 in2.0 miEast (80°)4.6 mph0.01 inSnowLight Snow
3:55 AM15.1 °F10.9 °F84 %30.00 in2.5 miEast (100°)4.6 mph0.01 inSnowLight Snow
4:12 AM15.1 °F10.9 °F84 %29.95 in3.0 miEast (90°)5.8 mph0.00 inSnowLight Snow
4:55 AM16.0 °F12.0 °F84 %29.98 in8.0 miENE (70°)3.5 mph0.01 inSnowLight Snow
5:16 AM16.0 °F12.0 °F84 %29.93 in2.0 miVariable3.5 mph0.00 inSnowLight Snow
5:24 AM16.0 °F12.0 °F84 %29.93 in1.5 miNNE (20°)3.5 mph0.00 inSnowLight Snow
5:37 AM16.0 °F12.0 °F84 %29.92 in2.5 miENE (70°)3.5 mph0.01 inSnowLight Snow
5:44 AM16.0 °F12.0 °F84 %29.92 in3.0 miEast (90°)3.5 mph0.01 inSnowLight Snow
5:52 AM15.8 °F12.2 °F86 %29.92 in2.5 miEast (80°)3.5 mph0.01 inSnowLight Snow
5:55 AM16.0 °F12.9 °F88 %29.96 in2.5 miEast (80°)4.6 mph0.01 inSnowLight Snow
6:10 AM17.1 °F12.9 °F84 %29.92 in3.0 miEast (80°)3.5 mph0.00 inSnowLight Snow
6:22 AM17.1 °F12.9 °F84 %29.92 in4.0 miEast (80°)4.6 mph0.00 inSnowLight Snow
6:34 AM17.1 °F12.9 °F84 %29.92 in1.8 miCalm0.01 inSnowLight Snow
6:52 AM17.6 °F12.2 °F79 %29.91 in2.0 miEast (80°)3.5 mph0.01 inSnowLight Snow
6:55 AM17.1 °F12.9 °F84 %29.95 in2.0 miENE (70°)3.5 mph0.01 inSnowLight Snow
7:03 AM17.1 °F12.9 °F84 %29.91 in3.0 miEast (80°)3.5 mph0.00 inSnowLight Snow
7:42 AM17.1 °F12.9 °F84 %29.90 in3.0 miCalm0.01 inSnowLight Snow
7:55 AM17.1 °F12.0 °F81 %29.94 in4.0 miCalm0.01 inSnowLight Snow
8:55 AM17.1 °F12.9 °F84 %29.93 in4.0 miCalm0.00 inSnowLight Snow
9:33 AM18.0 °F12.9 °F81 %29.88 in1.8 miCalm0.00 inSnowLight Snow
9:51 AM17.6 °F14.0 °F86 %29.88 in2.0 miSSW (210°)5.8 mph0.00 inSnowLight Snow
9:55 AM19.0 °F14.0 °F81 %29.92 in2.0 miSW (220°)5.8 mph0.00 inSnowLight Snow
10:12 AM19.0 °F15.1 °F85 %29.89 in5.0 miSW (220°)4.6 mph0.00 inSnowLight Snow
10:22 AM19.9 °F15.1 °F81 %29.89 in1.8 miSW (220°)4.6 mph0.01 inSnowLight Snow
10:43 AM19.9 °F16.0 °F85 %29.88 in2.0 miSW (220°)4.6 mph0.01 inSnowLight Snow
10:53 AM21.2 °F17.6 °F86 %29.88 in1.0 miWSW (240°)6.9 mph0.01 inSnowLight Snow
10:55 AM21.9 °F18.0 °F85 %29.91 in1.0 miWSW (240°)8.1 mph0.01 inSnowLight Snow
11:25 AM23.0 °F19.0 °F85 %29.88 in2.5 miWest (260°)9.2 mph0.01 inSnowLight Snow
11:33 AM24.1 °F19.0 °F81 %29.88 in4.0 miWest (260°)9.2 mph0.01 inSnowLight Snow
11:55 AM25.0 °F19.9 °F81 %29.90 in6.0 miWest (260°)12.7 mph19.6 mph0.01 inSnowLight Snow
12:16 PM27.0 °F21.9 °F81 %29.87 in2.0 miWest (270°)12.7 mph21.9 mph0.00 inSnowLight Snow
12:38 PM27.0 °F19.9 °F75 %29.87 in3.0 miNW (310°)16.1 mph27.6 mph0.01 inSnowLight Snow
12:55 PM27.0 °F19.9 °F75 %29.91 in8.0 miWNW (300°)16.1 mph26.5 mph0.01 inSnowLight Snow
1:55 PM26.1 °F17.1 °F69 %29.91 in7.0 miWNW (300°)12.7 mph24.2 mph0.00 inSnowLight Snow
2:55 PM25.0 °F17.1 °F72 %29.92 in5.0 miWNW (300°)15.0 mph24.2 mph0.00 inSnowLight Snow
3:55 PM25.0 °F16.0 °F69 %29.93 in7.0 miNW (310°)15.0 mph24.2 mph0.00 inSnowLight Snow
4:55 PM25.0 °F18.0 °F75 %29.95 in7.0 miWNW (290°)17.3 mph23.0 mph0.00 inSnowLight Snow
5:55 PM25.0 °F16.0 °F69 %29.96 in10.0 miWest (280°)16.1 mph23.0 mph0.00 inOvercast
6:55 PM25.0 °F16.0 °F69 %29.96 in10.0 miWNW (290°)15.0 mph24.2 mphOvercast
7:55 PM24.1 °F15.1 °F69 %29.96 in10.0 miWSW (250°)12.7 mphOvercast
8:29 PM24.1 °F14.0 °F65 %29.91 in10.0 miWSW (240°)15.0 mph19.6 mphOvercast
8:45 PM23.0 °F14.0 °F68 %29.90 in10.0 miSW (230°)11.5 mphOvercast
8:55 PM23.0 °F14.0 °F68 %29.93 in10.0 miWSW (240°)10.4 mphOvercast
9:32 PM23.0 °F12.9 °F65 %29.89 in10.0 miWSW (250°)10.4 mphScattered Clouds
9:55 PM21.0 °F12.0 °F68 %29.91 in10.0 miWSW (240°)10.4 mphClear
10:55 PM21.0 °F12.9 °F71 %29.86 in10.0 miSW (230°)11.5 mphClear
11:55 PM23.0 °F16.0 °F74 %29.81 in10.0 miSW (220°)15.0 mphClear
Hourly data recorded from KANJ, located miles away from Sault Ste. Marie, Michigan







STORIES FROM OUR PARTNERS